DLH3KA EDDW-EDDM

Flight info

Callsign DLH3KA
Flight time 0h 56m
Altitude 35000
Route NIE2M/09 NIE Z88 SAS DCT KUMER DCT SODRO/N0429F310 T703 LULAR/N0426F300 T105 LANDU LANDU2B
Aircraft A321/M-SDE2E3FGILORWXYZ/HB1

Departure

Time 2026-05-07 19:18
Airport Bremen Airport (EDDW)

Arrival

Time 2026-05-07 20:14
Airport Munich Airport (EDDM)
Time Latitude Longitude Altitude Speed Heading
2026-05-07 18:30 53.05094 8.78639 22 ft 0 kts 46°
2026-05-07 19:09 53.05081 8.78617 22 ft 4 kts 41°
2026-05-07 19:09 53.05060 8.78591 22 ft 4 kts 25°
2026-05-07 19:09 53.05035 8.78581 22 ft 4 kts 344°
2026-05-07 19:09 53.05025 8.78588 22 ft 0 kts 318°
2026-05-07 19:12 53.05029 8.78582 22 ft 2 kts 318°
2026-05-07 19:12 53.05045 8.78559 22 ft 4 kts 318°
2026-05-07 19:13 53.05071 8.78520 23 ft 6 kts 318°
2026-05-07 19:13 53.05109 8.78464 22 ft 8 kts 317°
2026-05-07 19:13 53.05150 8.78381 24 ft 10 kts 300°
2026-05-07 19:13 53.05180 8.78261 22 ft 12 kts 290°
2026-05-07 19:14 53.05199 8.78174 22 ft 12 kts 283°
2026-05-07 19:14 53.05176 8.78029 24 ft 14 kts 245°
2026-05-07 19:14 53.05114 8.77892 22 ft 16 kts 229°
2026-05-07 19:14 53.05037 8.77748 23 ft 18 kts 227°
2026-05-07 19:15 53.04966 8.77621 22 ft 11 kts 227°
2026-05-07 19:15 53.04913 8.77534 22 ft 11 kts 213°
2026-05-07 19:15 53.04833 8.77474 22 ft 13 kts 204°
2026-05-07 19:15 53.04751 8.77452 25 ft 11 kts 178°
2026-05-07 19:16 53.04673 8.77469 23 ft 12 kts 156°
2026-05-07 19:16 53.04656 8.77520 21 ft 0 kts 89°
2026-05-07 19:17 53.04656 8.77521 21 ft 0 kts 89°
2026-05-07 19:17 53.04657 8.77573 21 ft 21 kts 88°
2026-05-07 19:17 53.04676 8.78339 22 ft 106 kts 87°
2026-05-07 19:18 53.04714 8.79870 268 ft 145 kts 88°
2026-05-07 19:18 53.04761 8.81542 1039 ft 146 kts 88°
2026-05-07 19:18 53.04828 8.83296 1556 ft 162 kts 87°
2026-05-07 19:18 53.04884 8.85279 1916 ft 183 kts 93°
2026-05-07 19:19 53.04405 8.87273 2335 ft 197 kts 128°
2026-05-07 19:19 53.03475 8.89085 2676 ft 216 kts 132°
2026-05-07 19:19 53.02235 8.90710 3023 ft 238 kts 143°
2026-05-07 19:19 53.00818 8.92399 3532 ft 255 kts 142°
2026-05-07 19:20 52.99372 8.94125 4443 ft 257 kts 142°
2026-05-07 19:20 52.97905 8.95869 5250 ft 263 kts 142°
2026-05-07 19:20 52.96394 8.97626 6082 ft 267 kts 142°
2026-05-07 19:20 52.94868 8.99413 6928 ft 270 kts 142°
2026-05-07 19:21 52.93324 9.01229 7740 ft 274 kts 142°
2026-05-07 19:21 52.91754 9.03068 8529 ft 278 kts 143°
2026-05-07 19:21 52.90171 9.04936 9303 ft 282 kts 143°
2026-05-07 19:21 52.88559 9.06841 10049 ft 286 kts 143°
2026-05-07 19:22 52.86908 9.08786 10552 ft 301 kts 143°
2026-05-07 19:22 52.85132 9.10880 10768 ft 324 kts 144°
2026-05-07 19:22 52.83256 9.13087 11232 ft 336 kts 144°
2026-05-07 19:22 52.81337 9.15338 11887 ft 340 kts 144°
2026-05-07 19:23 52.79391 9.17613 12566 ft 344 kts 144°
2026-05-07 19:23 52.77425 9.19907 13238 ft 348 kts 144°
2026-05-07 19:23 52.75433 9.22215 13883 ft 352 kts 146°
2026-05-07 19:23 52.73207 9.23928 14488 ft 355 kts 166°
2026-05-07 19:24 52.70747 9.24264 15113 ft 357 kts 182°
2026-05-07 19:24 52.68253 9.24056 15768 ft 360 kts 184°
2026-05-07 19:24 52.65773 9.23816 16398 ft 363 kts 184°
2026-05-07 19:24 52.63210 9.23570 17029 ft 366 kts 184°
2026-05-07 19:25 52.60688 9.23333 17624 ft 369 kts 184°
2026-05-07 19:25 52.58082 9.23094 18210 ft 372 kts 184°
2026-05-07 19:25 52.55524 9.22868 18772 ft 375 kts 184°
2026-05-07 19:25 52.52908 9.22640 19321 ft 378 kts 184°
2026-05-07 19:26 52.50267 9.22417 19878 ft 381 kts 184°
2026-05-07 19:26 52.47613 9.22194 20405 ft 384 kts 184°
2026-05-07 19:26 52.44936 9.21968 20919 ft 387 kts 184°
2026-05-07 19:26 52.42241 9.21740 21412 ft 389 kts 184°
2026-05-07 19:27 52.39527 9.21509 21882 ft 392 kts 184°
2026-05-07 19:27 52.36788 9.21277 22356 ft 395 kts 184°
2026-05-07 19:27 52.34039 9.21051 22819 ft 398 kts 184°
2026-05-07 19:27 52.31268 9.21375 23245 ft 402 kts 168°
2026-05-07 19:28 52.28646 9.23028 23654 ft 408 kts 150°
2026-05-07 19:28 52.26398 9.25879 24012 ft 412 kts 139°
2026-05-07 19:28 52.24280 9.29043 24244 ft 414 kts 138°
2026-05-07 19:28 52.22164 9.32244 24698 ft 416 kts 138°
2026-05-07 19:29 52.20039 9.35466 25134 ft 418 kts 138°
2026-05-07 19:29 52.17900 9.38706 25558 ft 420 kts 138°
2026-05-07 19:29 52.15754 9.41948 25974 ft 422 kts 138°
2026-05-07 19:29 52.13586 9.45211 26375 ft 425 kts 138°
2026-05-07 19:30 52.11406 9.48475 26779 ft 427 kts 138°
2026-05-07 19:30 52.09208 9.51747 27164 ft 429 kts 138°
2026-05-07 19:30 52.07000 9.55028 27542 ft 431 kts 138°
2026-05-07 19:30 52.04778 9.58330 27925 ft 433 kts 138°
2026-05-07 19:31 52.02551 9.61643 28291 ft 435 kts 138°
2026-05-07 19:31 52.00309 9.64975 28654 ft 437 kts 138°
2026-05-07 19:31 51.98089 9.68270 29010 ft 439 kts 138°
2026-05-07 19:31 51.95797 9.71668 29358 ft 441 kts 138°
2026-05-07 19:32 51.93553 9.74987 29704 ft 443 kts 138°
2026-05-07 19:32 51.91265 9.78363 30044 ft 445 kts 138°
2026-05-07 19:32 51.88972 9.81739 30382 ft 447 kts 139°
2026-05-07 19:32 51.86658 9.85138 30684 ft 449 kts 139°
2026-05-07 19:33 51.84337 9.88545 30974 ft 451 kts 138°
2026-05-07 19:33 51.82010 9.91962 31246 ft 453 kts 138°
2026-05-07 19:33 51.79672 9.95398 31493 ft 455 kts 138°
2026-05-07 19:33 51.77321 9.98845 31770 ft 456 kts 138°
2026-05-07 19:34 51.74971 10.02279 32128 ft 455 kts 138°
2026-05-07 19:34 51.72618 10.05702 32452 ft 455 kts 138°
2026-05-07 19:34 51.70266 10.09119 32768 ft 454 kts 138°
2026-05-07 19:34 51.67925 10.12519 33035 ft 455 kts 138°
2026-05-07 19:35 51.63208 10.19363 33119 ft 455 kts 138°
2026-05-07 19:35 51.58501 10.26179 33109 ft 455 kts 139°
2026-05-07 19:36 51.53814 10.32944 33539 ft 455 kts 139°
2026-05-07 19:36 51.51459 10.36341 33850 ft 454 kts 139°
2026-05-07 19:36 51.49106 10.39735 34153 ft 454 kts 139°
2026-05-07 19:37 51.46756 10.43114 34436 ft 454 kts 139°
2026-05-07 19:37 51.44404 10.46487 34701 ft 454 kts 139°
2026-05-07 19:37 51.42051 10.49853 34953 ft 454 kts 139°
2026-05-07 19:37 51.39689 10.53226 35084 ft 454 kts 139°
2026-05-07 19:38 51.35031 10.59870 35110 ft 446 kts 139°
2026-05-07 19:38 51.30399 10.66457 35108 ft 445 kts 139°
2026-05-07 19:39 51.25768 10.73020 35111 ft 445 kts 140°
2026-05-07 19:39 51.21131 10.79580 35111 ft 445 kts 140°
2026-05-07 19:40 51.16495 10.86125 35111 ft 445 kts 140°
2026-05-07 19:40 51.11845 10.92659 35117 ft 445 kts 140°
2026-05-07 19:41 51.07190 10.99182 35117 ft 446 kts 140°
2026-05-07 19:41 51.02541 11.05704 35119 ft 446 kts 140°
2026-05-07 19:42 50.97882 11.12210 35119 ft 446 kts 140°
2026-05-07 19:42 50.93212 11.18693 35118 ft 446 kts 140°
2026-05-07 19:43 50.88533 11.25167 35116 ft 446 kts 140°
2026-05-07 19:43 50.83880 11.31592 35120 ft 446 kts 140°
2026-05-07 19:44 50.79197 11.38049 35120 ft 446 kts 140°
2026-05-07 19:44 50.74511 11.44516 35117 ft 447 kts 140°
2026-05-07 19:45 50.69819 11.50955 35116 ft 447 kts 141°
2026-05-07 19:45 50.65120 11.57384 35116 ft 447 kts 141°
2026-05-07 19:46 50.60414 11.63801 35114 ft 447 kts 141°
2026-05-07 19:46 50.55706 11.70202 35109 ft 447 kts 141°
2026-05-07 19:47 50.51000 11.76587 35107 ft 447 kts 141°
2026-05-07 19:47 50.46131 11.82631 35105 ft 444 kts 151°
2026-05-07 19:48 50.40559 11.86722 35101 ft 442 kts 159°
2026-05-07 19:48 50.34914 11.90538 35099 ft 439 kts 159°
2026-05-07 19:49 50.32152 11.92417 35049 ft 426 kts 159°
2026-05-07 19:49 50.29469 11.94242 34578 ft 416 kts 159°
2026-05-07 19:49 50.26836 11.96018 33957 ft 409 kts 159°
2026-05-07 19:49 50.24246 11.97753 33633 ft 400 kts 159°
2026-05-07 19:50 50.21701 11.99457 33157 ft 396 kts 159°
2026-05-07 19:50 50.19165 12.01156 32607 ft 397 kts 159°
2026-05-07 19:50 50.16627 12.02858 32040 ft 397 kts 159°
2026-05-07 19:50 50.14086 12.04561 31436 ft 399 kts 159°
2026-05-07 19:51 50.11528 12.06256 30815 ft 400 kts 162°
2026-05-07 19:51 50.08850 12.07289 30171 ft 396 kts 174°
2026-05-07 19:51 50.06112 12.07920 29472 ft 400 kts 174°
2026-05-07 19:51 50.03345 12.08534 28769 ft 403 kts 174°
2026-05-07 19:52 50.00561 12.09136 28052 ft 406 kts 175°
2026-05-07 19:52 49.97751 12.09735 27361 ft 408 kts 175°
2026-05-07 19:52 49.94972 12.10329 27103 ft 411 kts 175°
2026-05-07 19:52 49.92130 12.10936 27034 ft 414 kts 175°
2026-05-07 19:53 49.89268 12.11546 27050 ft 416 kts 174°
2026-05-07 19:53 49.86393 12.12166 27043 ft 416 kts 174°
2026-05-07 19:53 49.83521 12.12790 27045 ft 416 kts 174°
2026-05-07 19:53 49.80655 12.13412 27044 ft 416 kts 174°
2026-05-07 19:54 49.77789 12.14034 27044 ft 416 kts 174°
2026-05-07 19:54 49.74922 12.14652 27044 ft 416 kts 175°
2026-05-07 19:54 49.72054 12.15265 27035 ft 416 kts 174°
2026-05-07 19:54 49.70161 12.15669 27035 ft 415 kts 175°
2026-05-07 19:55 49.67294 12.16282 27036 ft 415 kts 175°
2026-05-07 19:55 49.64452 12.16888 26976 ft 409 kts 174°
2026-05-07 19:55 49.61655 12.17490 26570 ft 403 kts 174°
2026-05-07 19:55 49.58886 12.18085 26085 ft 399 kts 175°
2026-05-07 19:56 49.56144 12.18671 25581 ft 396 kts 175°
2026-05-07 19:56 49.53424 12.19254 25048 ft 394 kts 175°
2026-05-07 19:56 49.50717 12.19834 24521 ft 392 kts 175°
2026-05-07 19:56 49.48021 12.20409 24014 ft 390 kts 175°
2026-05-07 19:57 49.45342 12.20974 23499 ft 387 kts 175°
2026-05-07 19:57 49.42679 12.21539 23014 ft 385 kts 175°
2026-05-07 19:57 49.40043 12.22096 22553 ft 381 kts 175°
2026-05-07 19:57 49.37430 12.22649 22089 ft 377 kts 174°
2026-05-07 19:58 49.34852 12.23195 21620 ft 372 kts 175°
2026-05-07 19:58 49.32299 12.23738 21139 ft 369 kts 174°
2026-05-07 19:58 49.29768 12.24276 20672 ft 364 kts 174°
2026-05-07 19:58 49.27263 12.24804 20188 ft 361 kts 174°
2026-05-07 19:59 49.24790 12.25324 19716 ft 357 kts 175°
2026-05-07 19:59 49.22338 12.25839 19247 ft 354 kts 175°
2026-05-07 19:59 49.19935 12.25885 18774 ft 345 kts 189°
2026-05-07 19:59 49.17561 12.25412 18268 ft 342 kts 190°
2026-05-07 20:00 49.15207 12.24934 17795 ft 339 kts 190°
2026-05-07 20:00 49.12883 12.24457 17303 ft 335 kts 190°
2026-05-07 20:00 49.10576 12.23984 16804 ft 333 kts 190°
2026-05-07 20:00 49.08291 12.23513 16315 ft 331 kts 190°
2026-05-07 20:01 49.06021 12.23042 15836 ft 327 kts 191°
2026-05-07 20:01 49.03769 12.22579 15346 ft 325 kts 191°
2026-05-07 20:01 49.01529 12.22121 14857 ft 323 kts 191°
2026-05-07 20:01 48.99307 12.21666 14376 ft 320 kts 191°
2026-05-07 20:02 48.97109 12.21213 13886 ft 317 kts 191°
2026-05-07 20:02 48.94923 12.20760 13397 ft 315 kts 191°
2026-05-07 20:02 48.92781 12.20322 12918 ft 313 kts 191°
2026-05-07 20:02 48.90628 12.19886 12448 ft 311 kts 191°
2026-05-07 20:03 48.88492 12.19458 11976 ft 308 kts 191°
2026-05-07 20:03 48.86371 12.19028 11505 ft 306 kts 191°
2026-05-07 20:03 48.84264 12.18597 11034 ft 304 kts 191°
2026-05-07 20:03 48.82171 12.18167 10557 ft 303 kts 191°
2026-05-07 20:04 48.80083 12.17740 10102 ft 301 kts 190°
2026-05-07 20:04 48.78025 12.17322 9851 ft 292 kts 190°
2026-05-07 20:04 48.76042 12.16922 9725 ft 285 kts 191°
2026-05-07 20:04 48.74081 12.16523 9594 ft 284 kts 190°
2026-05-07 20:05 48.72124 12.16124 9476 ft 284 kts 190°
2026-05-07 20:05 48.70167 12.15729 9345 ft 283 kts 190°
2026-05-07 20:05 48.68226 12.15338 9074 ft 281 kts 190°
2026-05-07 20:05 48.66295 12.14949 8664 ft 279 kts 190°
2026-05-07 20:06 48.64403 12.14567 8259 ft 277 kts 190°
2026-05-07 20:06 48.62492 12.14183 7851 ft 276 kts 190°
2026-05-07 20:06 48.60591 12.13799 7458 ft 274 kts 190°
2026-05-07 20:06 48.58705 12.13415 7060 ft 273 kts 190°
2026-05-07 20:07 48.56829 12.13033 6657 ft 272 kts 190°
2026-05-07 20:07 48.54960 12.12660 6264 ft 270 kts 189°
2026-05-07 20:07 48.53102 12.12289 5873 ft 268 kts 190°
2026-05-07 20:07 48.51245 12.11914 5474 ft 268 kts 189°
2026-05-07 20:08 48.49404 12.11543 5177 ft 263 kts 189°
2026-05-07 20:08 48.47653 12.11186 5055 ft 251 kts 190°
2026-05-07 20:08 48.45959 12.10824 4948 ft 239 kts 190°
2026-05-07 20:08 48.44381 12.10496 5004 ft 222 kts 189°
2026-05-07 20:09 48.42844 12.10194 5005 ft 225 kts 189°
2026-05-07 20:09 48.41324 12.09751 4949 ft 219 kts 202°
2026-05-07 20:09 48.40058 12.08649 4872 ft 206 kts 222°
2026-05-07 20:10 48.38570 12.05137 4428 ft 196 kts 253°
2026-05-07 20:10 48.38277 12.03183 4257 ft 186 kts 262°
2026-05-07 20:10 48.38135 12.01316 3973 ft 175 kts 265°
2026-05-07 20:10 48.38013 11.99553 3719 ft 164 kts 265°
2026-05-07 20:11 48.37895 11.97912 3537 ft 150 kts 265°
2026-05-07 20:11 48.37779 11.96388 3300 ft 144 kts 265°
2026-05-07 20:11 48.37662 11.94908 3120 ft 145 kts 265°
2026-05-07 20:11 48.37552 11.93428 2948 ft 144 kts 266°
2026-05-07 20:12 48.37454 11.91928 2761 ft 144 kts 265°
2026-05-07 20:12 48.37339 11.90405 2561 ft 149 kts 264°
2026-05-07 20:12 48.37212 11.88848 2393 ft 151 kts 263°
2026-05-07 20:12 48.37089 11.87298 2190 ft 147 kts 264°
2026-05-07 20:13 48.36973 11.85781 1987 ft 145 kts 263°
2026-05-07 20:13 48.36854 11.84280 1790 ft 144 kts 263°
2026-05-07 20:13 48.36740 11.82783 1603 ft 143 kts 263°
2026-05-07 20:13 48.36630 11.81331 1487 ft 131 kts 263°
2026-05-07 20:14 48.36540 11.80197 1485 ft 85 kts 263°
2026-05-07 20:14 48.36493 11.79575 1478 ft 36 kts 263°
2026-05-07 20:14 48.36466 11.79236 1474 ft 30 kts 263°
2026-05-07 20:14 48.36418 11.78965 1481 ft 25 kts 245°
2026-05-07 20:15 48.36332 11.78770 1477 ft 20 kts 234°
2026-05-07 20:15 48.36254 11.78611 1478 ft 19 kts 233°
2026-05-07 20:15 48.36157 11.78478 1485 ft 19 kts 194°
2026-05-07 20:15 48.36053 11.78495 1477 ft 13 kts 156°
2026-05-07 20:16 48.36040 11.78632 1482 ft 15 kts 85°
2026-05-07 20:16 48.36053 11.78803 1481 ft 18 kts 83°
2026-05-07 20:16 48.36069 11.78998 1481 ft 20 kts 83°
2026-05-07 20:16 48.36083 11.79186 1481 ft 15 kts 84°
2026-05-07 20:17 48.36077 11.79310 1473 ft 9 kts 133°
2026-05-07 20:17 48.36013 11.79330 1478 ft 11 kts 171°
2026-05-07 20:17 48.35933 11.79352 1472 ft 13 kts 163°
2026-05-07 20:17 48.35850 11.79384 1481 ft 13 kts 171°
2026-05-07 20:18 48.35750 11.79402 1483 ft 16 kts 173°
2026-05-07 20:18 48.35634 11.79422 1480 ft 18 kts 173°
2026-05-07 20:18 48.35504 11.79444 1475 ft 18 kts 173°
2026-05-07 20:18 48.35464 11.79391 1485 ft 8 kts 259°
2026-05-07 20:19 48.35458 11.79326 1483 ft 3 kts 263°
2026-05-07 20:19 48.35457 11.79315 1485 ft 0 kts 263°